Location: Kernascl�den
(48.0062°N, 3.3198°W)
Time: 22:22:46
(UTC+00:00)

Cosmos 1833 Rocket - Pass Details

Date: 21 January 2021
Orbit: 833 x 839 km, 71.0° (Epoch: 04 March)

Event Time Altitude Azimuth Distance (km) Brightness Sun altitude
Rises 17:29:39 0° 337° (NNW) 3,391 5.8 -5.8°
Reaches altitude 10° 17:33:44 10° 6° (N) 2,455 4.8 -6.4°
Maximum altitude 17:36:08 13° 31° (NNE) 2,264 4.5 -6.8°
Drops below altitude 10° 17:38:33 10° 57° (ENE) 2,452 4.5 -7.2°
Enters shadow 17:39:14 - 63° (ENE) 2,566 4.5 -7.3°
